Regional Weather Roundup
Issued by NWS

Home | Current Version | Previous Version | Text Only | Print | Product List | Glossary Off
Versions: 1 2 3 4 5 6 7 8 9 10 11 12 13 14 15 16 17 18 19 20 21 22 23 24 25 26 27 28 29 30 31 32 33 34 35 36 37 38 39 40 41 42 43 44 45 46 47 48 49 50

000
ASUS43 KLOT 010310
RWRIL

ILLINOIS REGIONAL WEATHER ROUNDUP
NATIONAL WEATHER SERVICE CHICAGO/ROMEOVILLE IL
900 PM CST SAT FEB 28 2015

NOTE: "FAIR" INDICATES FEW OR NO CLOUDS BELOW 12,000 FEET WITH NO
SIGNIFICANT WEATHER AND/OR OBSTRUCTIONS TO VISIBILITY.

* THESE STATIONS ARE NOT UNDER NWS QUALITY CONTROL. THEY ALSO MAY NOT
  REPORT WEATHER SUCH AS PRECIPITATION OR FOG.

ILZ001-002-007-009-015-016-024-010400-
NORTHWEST ILLINOIS

CITY           SKY/WX    TMP DP  RH WIND       PRES   REMARKS
MOLINE         MOCLDY    11   7  84 E6        30.47F WCI   1
STERLING*      PTCLDY    12  10  92 SE5       30.48F WCI   4
SAVANNA*       LGT SNOW  12   9  86 SE3       30.48F
$$

ILZ003-004-008-010-011-017-018-010400-
NORTH CENTRAL ILLINOIS

CITY           SKY/WX    TMP DP  RH WIND       PRES   REMARKS
ROCKFORD       LGT SNOW  15  10  80 S5        30.50F WCI   8
FREEPORT*      LGT SNOW  11   8  87 SE3       30.49F
ROCHELLE*      LGT SNOW  15  13  90 SE6       30.49F WCI   6
DE KALB*       LGT SNOW  15  12  88 SE7       30.48F WCI   5
PERU*          LGT SNOW  19  17  88 SE8       30.50F WCI   9
$$

ILZ005-006-012>014-019>023-010400-
NORTHEAST ILLINOIS

CITY           SKY/WX    TMP DP  RH WIND       PRES   REMARKS
CHICAGO-OHARE  LGT SNOW  18  13  80 S7        30.50F WCI   9
CHICAGO-MIDWAY LGT SNOW  20  15  81 SE6       30.52F WCI  12
AURORA         LGT SNOW  18  12  77 SE7       30.50F WCI   9
LANSING*       FLURRIES  19  15  84 SE6       30.53S WCI  10
JOLIET*        LGT SNOW  18  15  86 SE3       30.51F
WAUKEGAN       CLOUDY    18  13  80 S7        30.50F HAZE    WCI   9
DUPAGE AIRPORT LGT SNOW  18  13  80 SE8       30.49F WCI   8
KANKAKEE*      LGT SNOW  19  17  91 E7        30.52F WCI  10
WHEELING       LGT SNOW  19  13  77 S8        30.53S WCI   9
MORRIS*        LGT SNOW  19  17  94 SE7       30.50F WCI   9
ROMEOVILLE*    LGT SNOW  18  14  83 SE7       30.51S WCI   9
NORTHERLY ISL    N/A     19  15  84 SE6         N/A  WCI  11
$$

LMZ740>746-010400-
SOUTHERN LAKE MICHIGAN

STATION/POSITION SKY/WX   TEMP    WIND        PRES    VSBY  WAVE
                          AIR SEA DIR/SP/G                  HT/PER
                          (F)     (DEG/KT/KT) (MB)    (MI)  (FT/S)
WAUKEGAN HARBOR            20     190/  9/ 11   N/A
HARRISON CRIB              18     150/ 11/ 14   N/A
BURNHAM HARBOR             19     150/  7/  8   N/A
CALUMET HARBOR             18     140/  6/  8 1032.3S
MICHIGAN CITY              18     110/  5/  7   N/A
$$

ILZ025>027-034>036-040-047-049-050-058-095>099-010400-
WEST-CENTRAL ILLINOIS

CITY           SKY/WX    TMP DP  RH WIND       PRES   REMARKS
QUINCY         LGT SNOW  20  17  88 SE7       30.44S FOG     WCI  11
GALESBURG*     LGT SNOW  18  16  94 CALM      30.46S
MACOMB*        FLURRIES  20  18  93 SE7       30.48F WCI  11
JACKSONVILLE*  LGT SNOW  24  20  88 E8        30.46F VSB 1   WCI  14
PITTSFIELD*    LGT SNOW  23  20  91 E6        30.45F WCI  15
$$

ILZ028>032-037-038-041>044-048-051>054-059>061-010400-
CENTRAL ILLINOIS

CITY           SKY/WX    TMP DP  RH WIND       PRES   REMARKS
PONTIAC        FLURRIES  20  18  92 E9        30.50F WCI   9
BLOOMINGTON    LGT SNOW  19  18  93 SE5       30.48S FOG     WCI  13
DECATUR        LGT SNOW  22  19  89 SE7       30.48F VSB 1   WCI  13
PEORIA         CLOUDY    21  16  81 SE8       30.48F WCI  11
LACON*         LGT SNOW  19  16  86 SE6       30.48F WCI  11
LINCOLN*       LGT SNOW  22  19  89 SE3       30.51R
SPRINGFIELD    LGT SNOW  22  19  89 E6        30.47F VSB 3/4 WCI  14
TAYLORVILLE    LGT SNOW  21  19  93 E7        30.47F VSB 1   WCI  13
$$

ILZ033-039-045-046-055>057-062-063-010400-
EAST-CENTRAL ILLINOIS

CITY           SKY/WX    TMP DP  RH WIND       PRES   REMARKS
CHAMPAIGN      LGT SNOW  21  18  88 E8        30.48F VSB 1   WCI  11
DANVILLE*      LGT SNOW  21  19  93 SE6       30.47F VSB 1   WCI  13
RANTOUL*       LGT SNOW  22  20  91 E6        30.48F WCI  15
MATTOON        LGT SNOW  22  19  89 SE7       30.47F VSB 1   WCI  13
PARIS*         LGT SNOW  22  21  95 E5        30.50F WCI  16
$$

ILZ079-100>102-010400-
SOUTHWEST ILLINOIS

CITY           SKY/WX    TMP DP  RH WIND       PRES   REMARKS
BELLEVILLE     LGT SNOW  25  25 100 NE2       30.46R VSB 1
CAHOKIA*       LGT SNOW  26  24  92 CALM      30.47S VSB 3/4
SPARTA*        LGT SNOW  26  25  96 SE3       30.47S VSB 1
$$

ILZ064>066-069>071-074>076-080>082-084>086-088>090-092>094-010400-
SOUTH-CENTRAL ILLINOIS

CITY           SKY/WX    TMP DP  RH WIND       PRES   REMARKS
CARBONDALE     CLOUDY    29  23  78 SE6       30.48F WCI  23
CAIRO*         CLOUDY    36  21  55 NE9       30.45F WCI  29
EFFINGHAM*     LGT SNOW  24  21  88 E5        30.50F VSB 1   WCI  18
MARION         CLOUDY    32  23  69 CALM      30.48S
MT. VERNON     CLOUDY    27  21  80 E3        30.47F VSB 1
CENTRALIA*     LGT SNOW  26  24  91 CALM      30.46F VSB 1
SALEM*         LGT SNOW  27  25  90 E6        30.47F VSB 1   WCI  21
METROPOLIS*    CLOUDY    33  22  62 N6        30.46R WCI  28
$$

ILZ067-068-072-073-078-083-087-091-010400-
SOUTHEAST ILLINOIS

CITY           SKY/WX    TMP DP  RH WIND       PRES   REMARKS
LAWRENCEVILLE  LGT SNOW  26  24  92 E8        30.50F VSB 1   WCI  18
FLORA*         LGT SNOW  25  24  96 E6        30.49F WCI  18
FAIRFIELD*     LGT SNOW  28  26  93 E5        30.47F WCI  22
HARRISBURG*    CLOUDY    31  22  71 NE8       30.49F WCI  23
ROBINSON*      LGT SNOW  26  25  96 E5        30.52F VSB 1   WCI  20
CARMI*         CLOUDY    32  25  76 NE8       30.48F WCI  24
$$

ABBREVIATIONS USED IN REMARKS
   TC - TEMPERATURE IN CELSIUS
  WCI - WIND CHILL INDEX
   HX - HEAT INDEX
  VSB - VISIBILITY
$$




USA.gov is the U.S. government's official web portal to all federal, state and local government web resources and services.